AZERSPACE 1

Last updated on Tue Sep 22 2026 00:03:12 GMT+0000 (Coordinated Universal Time)

1 39079U 13006B 26264.60875403 .00000000 00000+0 00000+0 0 9999 2 39079 0.0229 155.3696 0001616 39.1541 71.1195 1.00268601 49770
UTC large
Height (km)
Speed (km/s)
/
Latitude / Longitude
Inclination (degrees)
Orbital Period (minutes)
Azimuth
Elevation
Range (km)
Doppler Factor

Next 0 passes for location: London (51.5072 / 0.1276)

No passes found over London.
AZERSPACE 1